FW3914 Weather Reports


Display with metric or nautical units.
time (UTC)temp
F
wind
direction
speed
MPH
gust
MPH
rain 1hr
in
rain 24hr
in
rain mn
in
humidity
%
barometer
mb
20260905202007 101 256 3.0 8.0 0.00 0.00 0.00 42 1012.3
20260905201502 101 259 3.0 7.0 0.00 0.00 0.00 43 1012.3
20260905201001 101 203 3.0 6.0 0.00 0.00 0.00 42 1012.4
20260905200457 99 263 4.0 9.0 0.00 0.00 0.00 43 1012.3
20260905195955 102 218 7.0 8.0 0.00 0.00 0.00 42 1012.2
20260905195451 101 217 4.0 8.0 0.00 0.00 0.00 43 1012.4
20260905194946 101 244 4.0 11.0 0.00 0.00 0.00 44 1012.6
20260905194446 102 183 3.0 4.0 0.00 0.00 0.00 42 1012.7
20260905193940 101 238 2.0 5.0 0.00 0.00 0.00 44 1012.9
20260905193435 98 246 4.0 4.0 0.00 0.00 0.00 47 1012.9
20260905192930 100 238 3.0 6.0 0.00 0.00 0.00 45 1012.8
20260905192425 100 165 5.0 8.0 0.00 0.00 0.00 44 1013.2
20260905191920 99 283 3.0 10.0 0.00 0.00 0.00 46 1013.1
20260905191419 98 188 4.0 4.0 0.00 0.00 0.00 46 1013.4
20260905190914 99 226 1.0 9.0 0.00 0.00 0.00 46 1013.5
20260905190412 99 236 5.0 7.0 0.00 0.00 0.00 47 1013.4
20260905185910 100 262 4.0 5.0 0.00 0.00 0.00 46 1013.5
20260905185406 99 258 1.0 6.0 0.00 0.00 0.00 46 1013.7
20260905184904 98 224 4.0 7.0 0.00 0.00 0.00 47 1013.6
20260905184359 99 218 3.0 6.0 0.00 0.00 0.00 46 1013.7
20260905183857 98 331 3.0 4.0 0.00 0.00 0.00 47 1013.8
20260905183352 98 261 3.0 5.0 0.00 0.00 0.00 46 1013.9
20260905182847 98 245 3.0 6.0 0.00 0.00 0.00 47 1014.0
20260905182342 98 331 3.0 9.0 0.00 0.00 0.00 46 1014.2
20260905181837 100 234 4.0 7.0 0.00 0.00 0.00 45 1014.1
20260905181337 98 250 2.0 6.0 0.00 0.00 0.00 43 1014.1
20260905180836 99 211 3.0 8.0 0.00 0.00 0.00 43 1014.5
20260905180331 98 266 0.0 6.0 0.00 0.00 0.00 46 1014.4
20260905175826 97 228 2.0 7.0 0.00 0.00 0.00 46 1014.4
20260905175326 98 338 1.0 8.0 0.00 0.00 0.00 47 1014.3
20260905174821 98 323 4.0 5.0 0.00 0.00 0.00 48 1014.5
20260905174317 97 218 4.0 8.0 0.00 0.00 0.00 50 1014.6
20260905173812 98 284 4.0 10.0 0.00 0.00 0.00 50 1014.7
20260905173308 96 282 4.0 7.0 0.00 0.00 0.00 51 1014.6
20260905172808 96 63 1.0 6.0 0.00 0.00 0.00 52 1014.5
20260905172306 94 271 4.0 6.0 0.00 0.00 0.00 55 1014.8
20260905171803 92 352 2.0 3.0 0.00 0.00 0.00 56 1014.6
20260905171259 92 305 1.0 5.0 0.00 0.00 0.00 56 1014.8
20260905170755 93 304 4.0 6.0 0.00 0.00 0.00 56 1014.8
20260905170251 96 73 5.0 6.0 0.00 0.00 0.00 52 1015.0
20260905165749 95 240 2.0 5.0 0.00 0.00 0.00 52 1014.9
20260905165246 96 240 7.0 7.0 0.00 0.00 0.00 53 1014.8
20260905164746 96 268 2.0 9.0 0.00 0.00 0.00 54 1015.1
20260905164240 95 222 1.0 4.0 0.00 0.00 0.00 54 1015.0
20260905163736 95 246 4.0 8.0 0.00 0.00 0.00 54 1015.1
20260905163232 96 234 3.0 7.0 0.00 0.00 0.00 53 1015.2
20260905162728 95 286 2.0 3.0 0.00 0.00 0.00 54 1015.1
20260905162227 95 198 0.0 3.0 0.00 0.00 0.00 54 1015.2
20260905161723 95 234 2.0 5.0 0.00 0.00 0.00 54 1015.0
20260905161221 95 193 3.0 5.0 0.00 0.00 0.00 54 1015.1
20260905160719 93 302 2.0 4.0 0.00 0.00 0.00 56 1015.2
20260905160214 93 261 1.0 5.0 0.00 0.00 0.00 57 1015.1
20260905155708 92 233 5.0 7.0 0.00 0.00 0.00 58 1015.0
20260905155207 93 223 3.0 9.0 0.00 0.00 0.00 57 1015.0
20260905154701 94 248 2.0 6.0 0.00 0.00 0.00 57 1015.1
20260905154157 93 255 2.0 6.0 0.00 0.00 0.00 58 1015.1
20260905153654 93 251 3.0 5.0 0.00 0.00 0.00 58 1015.2
20260905153148 93 24 1.0 5.0 0.00 0.00 0.00 58 1015.1
20260905152643 92 277 3.0 5.0 0.00 0.00 0.00 60 1014.9
20260905152138 91 271 3.0 5.0 0.00 0.00 0.00 60 1014.9
20260905151633 91 238 4.0 6.0 0.00 0.00 0.00 62 1014.9
20260905151128 91 205 7.0 7.0 0.00 0.00 0.00 63 1014.8
20260905150624 91 220 2.0 6.0 0.00 0.00 0.00 63 1014.8
20260905150122 92 240 2.0 6.0 0.00 0.00 0.00 63 1015.0
20260905145620 91 240 3.0 3.0 0.00 0.00 0.00 64 1014.7
20260905145119 89 243 2.0 6.0 0.00 0.00 0.00 66 1014.9
20260905144614 90 231 4.0 6.0 0.00 0.00 0.00 65 1014.6
20260905144114 89 265 2.0 6.0 0.00 0.00 0.00 66 1014.9
20260905143608 88 241 2.0 5.0 0.00 0.00 0.00 68 1014.6
20260905143103 89 218 2.0 8.0 0.00 0.00 0.00 66 1014.8
20260905142602 89 193 1.0 5.0 0.00 0.00 0.00 67 1014.8
20260905142056 87 216 3.0 5.0 0.00 0.00 0.00 69 1014.7
20260905141556 88 261 2.0 6.0 0.00 0.00 0.00 68 1014.9
20260905141052 87 225 2.0 5.0 0.00 0.00 0.00 68 1014.8
20260905140548 88 184 1.0 3.0 0.00 0.00 0.00 67 1015.1
20260905140046 88 236 2.0 3.0 0.00 0.00 0.00 67 1014.8
20260905135542 88 213 2.0 3.0 0.00 0.00 0.00 67 1014.9
20260905135042 87 226 2.0 4.0 0.00 0.00 0.00 69 1014.8
20260905134537 86 233 3.0 4.0 0.00 0.00 0.00 71 1014.8
20260905134035 86 242 2.0 3.0 0.00 0.00 0.00 71 1014.7
20260905133531 85 229 1.0 3.0 0.00 0.00 0.00 71 1014.6
20260905133031 85 175 1.0 4.0 0.00 0.00 0.00 72 1014.5
20260905132531 84 196 2.0 4.0 0.00 0.00 0.00 73 1014.6
20260905132025 84 267 2.0 4.0 0.00 0.00 0.00 74 1014.8
20260905131521 83 217 2.0 6.0 0.00 0.00 0.00 74 1014.7
20260905131016 84 194 2.0 4.0 0.00 0.00 0.00 74 1014.7
20260905130515 84 306 1.0 3.0 0.00 0.00 0.00 74 1014.5
20260905130011 84 259 1.0 3.0 0.00 0.00 0.00 73 1014.5
20260905125505 83 241 0.0 2.0 0.00 0.00 0.00 74 1014.4
20260905125001 82 242 0.0 2.0 0.00 0.00 0.00 77 1014.2
20260905124457 80 192 0.0 2.0 0.00 0.00 0.00 79 1014.3
20260905123952 79 221 1.0 2.0 0.00 0.00 0.00 80 1014.0
20260905123448 79 202 0.0 2.0 0.00 0.00 0.00 80 1014.0
20260905122948 79 230 0.0 2.0 0.00 0.00 0.00 81 1014.1
20260905122443 79 207 0.0 3.0 0.00 0.00 0.00 81 1014.0
20260905121938 78 326 0.0 3.0 0.00 0.00 0.00 81 1014.0
20260905121434 78 235 0.0 2.0 0.00 0.00 0.00 81 1014.1
20260905120933 78 222 0.0 3.0 0.00 0.00 0.00 82 1014.1
20260905120427 78 251 1.0 2.0 0.00 0.00 0.00 82 1013.7
20260905115922 78 299 0.0 3.0 0.00 0.00 0.00 82 1014.0
20260905115422 78 263 2.0 2.0 0.00 0.00 0.00 83 1014.0
20260905114917 78 245 0.0 2.0 0.00 0.00 0.00 83 1014.1
20260905114416 78 219 0.0 2.0 0.00 0.00 0.00 83 1014.1
20260905113915 78 297 0.0 2.0 0.00 0.00 0.00 83 1014.1
20260905113411 78 224 0.0 1.0 0.00 0.00 0.00 83 1014.1
20260905112906 78 172 0.0 2.0 0.00 0.00 0.00 83 1014.1
20260905112401 78 321 0.0 0.0 0.00 0.00 0.00 83 1014.0
20260905111856 78 293 0.0 2.0 0.00 0.00 0.00 83 1014.1
20260905111350 78 269 0.0 1.0 0.00 0.00 0.00 83 1014.0
20260905110850 78 243 1.0 2.0 0.00 0.00 0.00 83 1014.0
20260905110344 78 246 1.0 2.0 0.00 0.00 0.00 83 1014.0
20260905105839 78 259 1.0 2.0 0.00 0.00 0.00 82 1014.0
20260905105339 79 252 1.0 2.0 0.00 0.00 0.00 81 1014.1
20260905104833 79 249 0.0 1.0 0.00 0.00 0.00 80 1013.8
20260905104330 79 315 0.0 0.0 0.00 0.00 0.00 80 1013.9
20260905103829 79 217 0.0 0.0 0.00 0.00 0.00 80 1014.0
20260905103324 79 351 0.0 1.0 0.00 0.00 0.00 80 1013.9
20260905102820 79 258 0.0 2.0 0.00 0.00 0.00 80 1013.9
20260905102317 79 309 0.0 1.0 0.00 0.00 0.00 79 1014.0
20260905101817 79 233 0.0 2.0 0.00 0.00 0.00 79 1014.0
20260905101315 79 230 0.0 2.0 0.00 0.00 0.00 79 1013.8
20260905100809 80 252 0.0 2.0 0.00 0.00 0.00 79 1014.0
20260905100306 80 245 0.0 2.0 0.00 0.00 0.00 79 1013.9
20260905095804 80 220 1.0 2.0 0.00 0.00 0.00 78 1013.8
20260905095259 80 215 2.0 2.0 0.00 0.00 0.00 78 1013.8
20260905094754 80 258 0.0 3.0 0.00 0.00 0.00 78 1013.7
20260905094249 80 233 1.0 3.0 0.00 0.00 0.00 77 1013.8
20260905093748 81 218 2.0 3.0 0.00 0.00 0.00 77 1013.7
20260905093244 81 229 1.0 3.0 0.00 0.00 0.00 77 1013.7
20260905092740 81 194 2.0 3.0 0.00 0.00 0.00 77 1013.8
20260905092235 81 243 0.0 2.0 0.00 0.00 0.00 77 1013.5
20260905091735 81 269 0.0 3.0 0.00 0.00 0.00 77 1013.7
20260905091230 81 224 0.0 3.0 0.00 0.00 0.00 77 1013.5
20260905090728 81 221 2.0 2.0 0.00 0.00 0.00 77 1013.5
20260905090225 81 216 2.0 4.0 0.00 0.00 0.00 77 1013.5
20260905085723 80 237 1.0 2.0 0.00 0.00 0.00 77 1013.5
20260905085219 80 249 1.0 2.0 0.00 0.00 0.00 77 1013.3
20260905084719 81 256 0.0 2.0 0.00 0.00 0.00 78 1013.3
20260905084218 81 258 1.0 2.0 0.00 0.00 0.00 77 1013.4
20260905083714 81 228 0.0 2.0 0.00 0.00 0.00 77 1013.2
20260905083210 81 233 1.0 2.0 0.00 0.00 0.00 77 1013.3
20260905082705 81 252 0.0 2.0 0.00 0.00 0.00 76 1013.2
20260905082200 81 255 0.0 2.0 0.00 0.00 0.00 76 1013.0
20260905081655 81 255 2.0 2.0 0.00 0.00 0.00 76 1013.1
20260905081150 82 238 0.0 2.0 0.00 0.00 0.00 75 1013.2
20260905080649 82 250 1.0 2.0 0.00 0.00 0.00 74 1013.3
20260905080149 82 151 0.0 2.0 0.00 0.00 0.00 74 1013.2
20260905075649 82 176 2.0 3.0 0.00 0.00 0.00 74 1013.4
20260905075148 82 136 0.0 3.0 0.00 0.00 0.00 73 1013.3
20260905074647 82 252 0.0 3.0 0.00 0.00 0.00 73 1013.4
20260905074143 82 231 1.0 3.0 0.00 0.00 0.00 73 1013.3
20260905073638 82 235 0.0 2.0 0.00 0.00 0.00 73 1013.4
20260905073134 83 234 2.0 2.0 0.00 0.00 0.00 73 1013.3
20260905072633 83 192 2.0 4.0 0.00 0.00 0.00 72 1013.5
20260905072128 83 255 1.0 4.0 0.00 0.00 0.00 72 1013.6
20260905071625 83 133 3.0 3.0 0.00 0.00 0.00 71 1013.4
20260905071120 83 166 3.0 3.0 0.00 0.00 0.00 71 1013.5
20260905070616 83 190 3.0 3.0 0.00 0.00 0.00 71 1013.7
20260905070112 84 277 2.0 2.0 0.00 0.00 0.00 71 1013.8
20260905065609 84 262 2.0 3.0 0.00 0.00 0.00 71 1013.8
20260905065104 84 212 1.0 3.0 0.00 0.00 0.00 70 1013.8
20260905064559 84 203 1.0 3.0 0.00 0.00 0.00 70 1013.9
20260905064055 84 194 2.0 3.0 0.00 0.00 0.00 70 1014.0
20260905063553 85 187 0.0 3.0 0.00 0.00 0.00 69 1013.8
20260905063050 85 269 0.0 3.0 0.00 0.00 0.00 69 1013.9
20260905062545 85 248 0.0 3.0 0.00 0.00 0.00 69 1013.9
20260905062044 85 242 1.0 3.0 0.00 0.00 0.00 69 1013.8
20260905061540 85 269 0.0 2.0 0.00 0.00 0.00 68 1014.0
20260905061039 85 215 2.0 4.0 0.00 0.00 0.00 68 1013.9
20260905060535 85 206 2.0 3.0 0.00 0.00 0.00 68 1013.9
20260905060031 85 215 2.0 3.0 0.00 0.00 0.00 68 1013.8
20260905055529 85 253 2.0 2.0 0.00 0.00 0.00 68 1013.9
20260905055024 85 251 2.0 3.0 0.00 0.00 0.00 67 1013.7
20260905054520 85 250 1.0 2.0 0.00 0.00 0.00 67 1013.7
20260905054015 85 246 2.0 2.0 0.00 0.00 0.00 67 1013.6
20260905053509 86 247 1.0 4.0 0.00 0.00 0.00 66 1013.6
20260905053005 86 233 3.0 4.0 0.00 0.00 0.00 66 1013.5
20260905052504 86 225 4.0 5.0 0.00 0.00 0.00 66 1013.5
20260905052004 86 235 2.0 3.0 0.00 0.00 0.00 66 1013.6
20260905051500 86 239 0.0 3.0 0.00 0.00 0.00 66 1013.5
20260905050957 86 229 2.0 3.0 0.00 0.00 0.00 66 1013.6
20260905050452 86 223 2.0 3.0 0.00 0.00 0.00 66 1013.4
20260905045948 86 212 1.0 3.0 0.00 0.00 0.00 65 1013.5
20260905045443 86 212 0.0 3.0 0.00 0.00 0.00 65 1013.5
20260905044939 86 220 2.0 4.0 0.00 0.00 0.00 65 1013.5
20260905044433 86 185 1.0 4.0 0.00 0.00 0.00 65 1013.4
20260905043933 86 205 1.0 4.0 0.00 0.00 0.00 64 1013.5
20260905043432 86 252 0.0 3.0 0.00 0.00 0.00 65 1013.5
20260905042927 86 176 2.0 4.0 0.00 0.00 0.00 64 1013.7
20260905042421 87 262 1.0 3.0 0.00 0.00 0.00 64 1013.6
20260905041916 87 208 1.0 4.0 0.00 0.00 0.00 64 1013.4
20260905041413 87 193 1.0 4.0 0.00 0.00 0.00 64 1013.5
20260905040912 87 243 2.0 4.0 0.00 0.00 0.00 64 1013.5
20260905040407 87 180 1.0 3.0 0.00 0.00 0.00 63 1013.3
20260905035906 87 193 2.0 4.0 0.00 0.00 0.00 63 1013.6
20260905035401 87 200 2.0 4.0 0.00 0.00 0.00 63 1013.5
20260905034858 87 242 1.0 3.0 0.00 0.00 0.00 63 1013.5
20260905034353 87 201 1.0 3.0 0.00 0.00 0.00 62 1013.5
20260905033851 87 168 2.0 3.0 0.00 0.00 0.00 62 1013.6
20260905033348 88 176 0.0 3.0 0.00 0.00 0.00 61 1013.7
20260905032846 88 246 1.0 3.0 0.00 0.00 0.00 61 1013.7
20260905032342 88 250 1.0 4.0 0.00 0.00 0.00 61 1013.6
20260905031837 88 211 2.0 4.0 0.00 0.00 0.00 61 1013.3
20260905031333 88 220 3.0 4.0 0.00 0.00 0.00 61 1013.5
20260905030828 89 201 2.0 5.0 0.00 0.00 0.00 60 1013.5
20260905030324 89 243 2.0 4.0 0.00 0.00 0.00 60 1013.1
20260905025823 89 215 1.0 4.0 0.00 0.00 0.00 60 1013.2
20260905025318 89 205 2.0 4.0 0.00 0.00 0.00 60 1013.2
20260905024815 89 269 0.0 3.0 0.00 0.00 0.00 59 1013.2
20260905024310 89 264 1.0 4.0 0.00 0.00 0.00 60 1013.3
20260905023805 89 249 3.0 5.0 0.00 0.00 0.00 60 1013.2
20260905023300 89 275 2.0 3.0 0.00 0.00 0.00 59 1013.1
20260905022759 89 310 2.0 4.0 0.00 0.00 0.00 59 1013.0
20260905022254 90 245 2.0 3.0 0.00 0.00 0.00 59 1013.0
20260905021749 90 280 2.0 3.0 0.00 0.00 0.00 58 1012.8
20260905021244 90 306 1.0 4.0 0.00 0.00 0.00 58 1012.8
20260905020744 90 315 1.0 3.0 0.00 0.00 0.00 57 1012.6
20260905020239 91 2 2.0 3.0 0.00 0.00 0.00 57 1012.4
20260905015738 91 260 2.0 4.0 0.00 0.00 0.00 57 1012.7
20260905015232 91 259 1.0 4.0 0.00 0.00 0.00 56 1012.6
20260905014731 91 255 0.0 4.0 0.00 0.00 0.00 56 1012.5
20260905014227 91 209 0.0 4.0 0.00 0.00 0.00 56 1012.3
20260905013723 91 280 2.0 3.0 0.00 0.00 0.00 55 1012.2
20260905013219 91 268 2.0 3.0 0.00 0.00 0.00 55 1012.2
20260905012714 92 232 1.0 4.0 0.00 0.00 0.00 55 1012.3
20260905012210 92 316 0.0 4.0 0.00 0.00 0.00 55 1012.3
20260905011706 92 236 1.0 3.0 0.00 0.00 0.00 55 1012.3
20260905011202 92 249 2.0 4.0 0.00 0.00 0.00 55 1012.3
20260905010701 92 307 2.0 5.0 0.00 0.00 0.00 55 1012.2
20260905010157 93 287 2.0 4.0 0.00 0.00 0.00 54 1011.9
20260905005654 93 344 1.0 4.0 0.00 0.00 0.00 54 1011.9
20260905005149 93 319 3.0 4.0 0.00 0.00 0.00 54 1011.9
20260905004643 93 76 2.0 5.0 0.00 0.00 0.00 53 1012.0
20260905004138 93 13 2.0 5.0 0.00 0.00 0.00 52 1012.0
20260905003634 94 288 2.0 4.0 0.00 0.00 0.00 51 1011.9
20260905003130 94 285 1.0 9.0 0.00 0.00 0.00 51 1012.0
20260905002625 95 191 1.0 10.0 0.00 0.00 0.00 50 1011.9
20260905002119 95 51 2.0 4.0 0.00 0.00 0.00 46 1011.7
20260905001615 95 266 2.0 4.0 0.00 0.00 0.00 46 1011.6
20260905001109 96 204 3.0 8.0 0.00 0.00 0.00 45 1011.6
20260905000604 96 235 3.0 5.0 0.00 0.00 0.00 45 1011.6
20260905000100 97 245 2.0 5.0 0.00 0.00 0.00 44 1011.6
20260904235600 98 223 3.0 5.0 0.00 0.00 0.00 44 1011.6
20260904235059 98 286 1.0 5.0 0.00 0.00 0.00 44 1011.5
20260904234554 98 192 4.0 7.0 0.00 0.00 0.00 43 1011.7
20260904234050 99 230 5.0 7.0 0.00 0.00 0.00 42 1011.8
20260904233545 100 279 2.0 4.0 0.00 0.00 0.00 42 1011.6
20260904233041 100 265 2.0 5.0 0.00 0.00 0.00 43 1011.6
20260904232538 100 294 2.0 5.0 0.00 0.00 0.00 42 1011.2
20260904232034 100 215 4.0 9.0 0.00 0.00 0.00 43 1011.8
20260904231529 100 285 2.0 6.0 0.00 0.00 0.00 42 1011.4
20260904231024 100 223 3.0 6.0 0.00 0.00 0.00 43 1011.6
20260904230523 100 239 3.0 8.0 0.00 0.00 0.00 42 1011.5
20260904230019 100 213 3.0 8.0 0.00 0.00 0.00 42 1011.6
20260904225517 100 312 2.0 7.0 0.00 0.00 0.00 43 1011.6
20260904225016 99 296 5.0 12.0 0.00 0.00 0.00 44 1011.8
20260904224511 98 307 2.0 7.0 0.00 0.00 0.00 45 1011.6
20260904224011 98 13 3.0 11.0 0.00 0.00 0.00 46 1011.7
20260904223505 99 300 3.0 6.0 0.00 0.00 0.00 45 1011.8
20260904223001 100 211 3.0 7.0 0.00 0.00 0.00 44 1011.9
20260904222456 100 55 2.0 6.0 0.00 0.00 0.00 44 1011.9
20260904221950 99 251 2.0 7.0 0.00 0.00 0.00 46 1011.8
20260904221445 100 193 2.0 10.0 0.00 0.00 0.00 45 1011.8
20260904220940 101 247 4.0 7.0 0.00 0.00 0.00 44 1011.7
20260904220440 100 269 4.0 11.0 0.00 0.00 0.00 45 1011.7
20260904215935 102 283 4.0 6.0 0.00 0.00 0.00 44 1012.0
20260904215430 103 3 2.0 5.0 0.00 0.00 0.00 43 1011.9
20260904214926 102 330 3.0 9.0 0.00 0.00 0.00 43 1011.9
20260904214421 101 314 4.0 7.0 0.00 0.00 0.00 45 1012.0
20260904213921 101 98 4.0 9.0 0.00 0.00 0.00 45 1012.0
20260904213415 102 320 3.0 7.0 0.00 0.00 0.00 43 1012.1
20260904212911 103 251 2.0 8.0 0.00 0.00 0.00 44 1012.0
20260904212410 103 233 4.0 7.0 0.00 0.00 0.00 42 1012.0
20260904211906 103 201 6.0 9.0 0.00 0.00 0.00 42 1012.2
20260904211401 103 233 3.0 12.0 0.00 0.00 0.00 43 1012.2
20260904210856 102 204 3.0 7.0 0.00 0.00 0.00 42 1012.3
20260904210355 102 324 6.0 10.0 0.00 0.00 0.00 43 1012.4
20260904205852 103 244 3.0 8.0 0.00 0.00 0.00 42 1012.4
20260904205347 103 261 4.0 5.0 0.00 0.00 0.00 44 1012.4
20260904204844 101 271 3.0 10.0 0.00 0.00 0.00 44 1012.4
20260904204339 103 163 2.0 7.0 0.00 0.00 0.00 42 1012.5
20260904203836 102 254 3.0 7.0 0.00 0.00 0.00 44 1012.6
20260904203332 102 211 5.0 9.0 0.00 0.00 0.00 43 1012.8
20260904202827 102 352 5.0 12.0 0.00 0.00 0.00 43 1012.7
20260904202323 100 186 3.0 11.0 0.00 0.00 0.00 44 1012.8